| time (UTC) | temp F | wind direction | speed MPH | gust MPH | rain 1hr in | rain 24hr in | rain mn in | humidity % | barometer mb |
| 20260505061554 | 43 | 256 | 4.0 | 12.0 | 0.00 | 0.23 | 0.00 | 87 | 1007.7 |
| 20260505060100 | 43 | 144 | 4.0 | 9.0 | 0.00 | 0.23 | 0.00 | 87 | 1007.4 |
| 20260505054620 | 44 | 151 | 3.0 | 9.0 | 0.00 | 0.23 | 0.00 | 85 | 1007.0 |
| 20260505053052 | 44 | 189 | 2.0 | 9.0 | 0.00 | 0.23 | 0.00 | 85 | 1006.8 |
| 20260505051551 | 45 | 220 | 4.0 | 17.0 | 0.00 | 0.23 | 0.00 | 84 | 1006.6 |
| 20260505041601 | 47 | 262 | 5.0 | 19.0 | 0.00 | 0.25 | 0.00 | 81 | 1005.7 |
| 20260505040055 | 47 | 248 | 7.0 | 15.0 | 0.00 | 0.25 | 0.00 | 80 | 1005.6 |
| 20260505034553 | 47 | 200 | 7.0 | 15.0 | 0.00 | 0.25 | 0.00 | 79 | 1005.3 |
| 20260505033052 | 48 | 296 | 6.0 | 18.0 | 0.00 | 0.25 | 0.00 | 79 | 1005.1 |
| 20260505031554 | 48 | 272 | 9.0 | 25.0 | 0.00 | 0.25 | 0.00 | 78 | 1004.8 |
| 20260505030104 | 48 | 263 | 6.0 | 22.0 | 0.00 | 0.25 | 0.00 | 78 | 1004.6 |
| 20260505024602 | 48 | 258 | 5.0 | 19.0 | 0.00 | 0.25 | 0.25 | 78 | 1004.4 |
| 20260505023059 | 48 | 254 | 7.0 | 25.0 | 0.00 | 0.25 | 0.25 | 79 | 1004.2 |
| 20260505021558 | 47 | 255 | 5.0 | 17.0 | 0.00 | 0.25 | 0.25 | 79 | 1004.0 |
| 20260505020103 | 47 | 192 | 5.0 | 15.0 | 0.00 | 0.25 | 0.25 | 77 | 1003.8 |
| 20260505014557 | 48 | 259 | 6.0 | 18.0 | 0.00 | 0.28 | 0.25 | 77 | 1003.6 |
| 20260505013052 | 48 | 214 | 7.0 | 19.0 | 0.00 | 0.28 | 0.25 | 77 | 1003.6 |
| 20260505011555 | 48 | 302 | 6.0 | 21.0 | 0.00 | 0.28 | 0.25 | 76 | 1003.6 |
| 20260505010112 | 48 | 161 | 9.0 | 20.0 | 0.00 | 0.28 | 0.25 | 75 | 1003.4 |
| 20260505004555 | 48 | 266 | 7.0 | 27.0 | 0.00 | 0.36 | 0.25 | 74 | 1003.2 |
| 20260505003052 | 49 | 249 | 7.0 | 20.0 | 0.00 | 0.36 | 0.25 | 71 | 1003.1 |
| 20260505001554 | 49 | 260 | 7.0 | 23.0 | 0.00 | 0.36 | 0.25 | 71 | 1002.9 |
| 20260505000101 | 50 | 163 | 10.0 | 31.0 | 0.00 | 0.36 | 0.25 | 67 | 1002.6 |
| 20260504234558 | 49 | 233 | 6.0 | 21.0 | 0.00 | 0.52 | 0.25 | 67 | 1002.7 |
| 20260504233112 | 49 | 160 | 6.0 | 15.0 | 0.00 | 0.52 | 0.25 | 67 | 1002.3 |
| 20260504231552 | 49 | 253 | 6.0 | 17.0 | 0.00 | 0.52 | 0.25 | 67 | 1002.1 |
| 20260504230110 | 49 | 297 | 7.0 | 16.0 | 0.00 | 0.52 | 0.25 | 65 | 1002.0 |
| 20260504224607 | 50 | 228 | 6.0 | 22.0 | 0.00 | 0.62 | 0.25 | 63 | 1002.0 |
| 20260504223106 | 51 | 277 | 8.0 | 22.0 | 0.00 | 0.62 | 0.25 | 61 | 1001.9 |
| 20260504221553 | 51 | 235 | 6.0 | 19.0 | 0.00 | 0.62 | 0.25 | 61 | 1001.7 |
| 20260504220057 | 52 | 167 | 6.0 | 16.0 | 0.00 | 0.62 | 0.25 | 59 | 1001.6 |
| 20260504214552 | 52 | 243 | 10.0 | 26.0 | 0.00 | 0.79 | 0.25 | 57 | 1001.4 |
| 20260504213056 | 52 | 222 | 12.0 | 27.0 | 0.00 | 0.79 | 0.25 | 56 | 1001.5 |
| 20260504211559 | 53 | 170 | 7.0 | 24.0 | 0.00 | 0.79 | 0.25 | 58 | 1001.1 |
| 20260504210104 | 53 | 272 | 16.0 | 38.0 | 0.00 | 0.79 | 0.25 | 56 | 1001.0 |
| 20260504204605 | 53 | 300 | 11.0 | 35.0 | 0.00 | 0.82 | 0.25 | 60 | 1000.5 |
| 20260504203058 | 52 | 244 | 12.0 | 38.0 | 0.00 | 0.82 | 0.25 | 60 | 1000.0 |
| 20260504201607 | 52 | 268 | 15.0 | 33.0 | 0.01 | 0.82 | 0.25 | 63 | 1000.0 |
| 20260504200103 | 52 | 329 | 14.0 | 33.0 | 0.01 | 0.82 | 0.25 | 66 | 999.6 |
| 20260504194556 | 52 | 293 | 13.0 | 25.0 | 0.01 | 0.85 | 0.25 | 70 | 999.4 |
| 20260504193055 | 52 | 265 | 9.0 | 31.0 | 0.01 | 0.85 | 0.25 | 72 | 999.1 |
| 20260504191617 | 52 | 276 | 12.0 | 28.0 | 0.00 | 0.84 | 0.24 | 74 | 999.2 |
| 20260504190100 | 51 | 283 | 12.0 | 32.0 | 0.00 | 0.84 | 0.24 | 77 | 998.7 |
| 20260504184603 | 49 | 309 | 13.0 | 35.0 | 0.00 | 0.87 | 0.24 | 81 | 998.7 |
| 20260504183056 | 47 | 312 | 12.0 | 31.0 | 0.00 | 0.87 | 0.24 | 82 | 998.4 |
| 20260504181556 | 47 | 264 | 10.0 | 41.0 | 0.00 | 0.87 | 0.24 | 87 | 998.4 |
| 20260504180056 | 45 | 346 | 9.0 | 30.0 | 0.00 | 0.87 | 0.24 | 88 | 998.3 |
| 20260504174557 | 44 | 305 | 13.0 | 29.0 | 0.00 | 0.87 | 0.24 | 89 | 998.0 |
| 20260504173057 | 44 | 235 | 10.0 | 25.0 | 0.00 | 0.87 | 0.24 | 90 | 997.7 |
| 20260504171556 | 43 | 234 | 11.0 | 28.0 | 0.00 | 0.87 | 0.24 | 92 | 997.5 |
| 20260504120124 | 38 | 276 | 15.0 | 29.0 | 0.01 | 0.76 | 0.13 | 95 | 987.4 |
| 20260504081610 | 37 | 237 | 8.0 | 22.0 | 0.04 | 0.73 | 0.10 | 98 | 977.3 |